Simultaneous Nadir Overpasses (SNOs) Predictions

Prediction of SNOs between LANDSAT-8 and NOAA-19 Satellite Orbit:

Table of predicted SNOs for the next 14.0 days since TLE Epoch: 3/13/2021
Index Date (LANDSAT-8) Time (LANDSAT-8) Lat,Lon (LANDSAT-8) SZA (LANDSAT-8 ) Date (NOAA-19) Time (NOAA-19) Lat,Lon (NOAA-19) SZA (NOAA-19 ) Distance(km) Time Diff (sec)
1 03/14/2021 03:36:55 80.30, 155.70 83.82 03/14/2021 03:36:03 80.27, 155.60 83.78 3.30 52
2 03/14/2021 04:26:23 -80.26, -37.00 96.26 03/14/2021 04:27:06 -80.25, -36.87 96.23 2.41 43
3 03/16/2021 10:00:05 80.27, 59.64 82.89 03/16/2021 10:00:15 80.27, 59.65 82.90 0.62 10
4 03/18/2021 15:33:48 -80.27, 156.21 97.98 03/18/2021 15:33:32 -80.28, 156.20 97.97 1.94 16
5 03/18/2021 16:23:14 80.27, -36.14 82.02 03/18/2021 16:24:27 80.27, -36.29 82.03 2.87 73
6 03/20/2021 21:07:29 80.30,-106.92 81.21 03/20/2021 21:06:39 80.28,-106.88 81.18 2.49 50
7 03/20/2021 21:56:57 -80.27, 60.43 98.85 03/20/2021 21:57:44 -80.28, 60.36 98.84 1.70 47
8 03/23/2021 02:41:14 -80.23, -10.96 99.76 03/23/2021 02:40:01 -80.37, -11.81 99.73 22.32 73
9 03/23/2021 03:30:38 80.30, 157.26 80.33 03/23/2021 03:30:51 80.28, 157.17 80.31 2.68 13
10 03/25/2021 09:04:21 -80.30,-106.17 100.53 03/25/2021 09:04:08 -80.27,-106.03 100.55 3.49 13



Historial Predications of SNOs between LANDSAT-8 and NOAA-19
